Weather History for Stanton, MN

Change the Weather History Date:

Monday, October 15, 2012

  Actual Average (KLVN) Record (KLVN)
Temperature  
Mean Temperature 47 °F -  
Max Temperature 63 °F 57 °F 85 °F (1968)
Min Temperature 31 °F 38 °F 24 °F (2006)
Degree Days  
Heating Degree Days 18    
Moisture  
Dew Point 34 °F    
Average Humidity 58    
Maximum Humidity 91    
Minimum Humidity 32    
Precipitation  
Precipitation 0.00 in - - ()
Sea Level Pressure  
Sea Level Pressure 29.88 in    
Wind  
Wind Speed 5 mph (SSW)    
Max Wind Speed 15 mph    
Max Gust Speed 22 mph    
Visibility 10 miles    
Events      
Averages and records for this station are not official NWS values.
T = Trace of Precipitation, MM = Missing Value Source: NWS Daily Summary

Daily Weather History Graph

Daily Weather History Graph

Search for Another Location

Airport:

Trip Planner

Search our weather history database for the weather conditions in past years. The results will help you decide how hot, cold, wet, or windy it might be!

Date:

Astronomy

Oct. 15, 2012 Rise Set
Actual Time 7:27 AM CDT 6:26 PM CDT
Civil Twilight 6:58 AM CDT 6:56 PM CDT
Nautical Twilight 6:24 AM CDT 7:29 PM CDT
Astronomical Twilight 5:51 AM CDT 8:03 PM CDT
Moon 7:41 AM CDT (10/15) 6:23 PM CDT (10/15)
Length of Visible Light 11h 57m
Length of Day
10h 59m
New Moon, 0% of the Moon is Illuminated
Oct 15
New Moon
Oct 21
First Quarter
Oct 29
Full
Nov 6
Last Quarter
Nov 13
New

Hourly Weather History & Observations

Time (CDT) Temp. Windchill Dew Point Humidity Pressure Visibility Wind Dir Wind Speed Gust Speed Precip Events Conditions
12:12 AM 44.8 °F 41.6 °F 36.5 °F 73% 29.86 in 10.0 mi West 5.8 mph - N/A   Scattered Clouds
12:32 AM 43.9 °F 39.9 °F 36.5 °F 75% 29.86 in 10.0 mi WNW 6.9 mph - N/A   Clear
12:52 AM 44.1 °F 40.8 °F 36.7 °F 75% 29.87 in 10.0 mi WNW 5.8 mph - N/A   Clear
1:12 AM 44.2 °F 41.8 °F 36.5 °F 74% 29.88 in 10.0 mi West 4.6 mph - N/A   Clear
1:32 AM 43.7 °F 40.3 °F 36.0 °F 74% 29.88 in 10.0 mi West 5.8 mph - N/A   Clear
1:52 AM 42.3 °F 39.4 °F 35.4 °F 77% 29.88 in 10.0 mi West 4.6 mph - N/A   Clear
2:12 AM 40.6 °F 38.6 °F 34.5 °F 79% 29.89 in 10.0 mi West 3.5 mph - N/A   Clear
2:32 AM 41.0 °F - 34.3 °F 77% 29.89 in 10.0 mi Calm Calm - N/A   Clear
2:52 AM 40.3 °F - 34.0 °F 78% 29.89 in 10.0 mi Calm Calm - N/A   Clear
3:12 AM 38.5 °F 36.1 °F 32.7 °F 80% 29.89 in 10.0 mi SSW 3.5 mph - N/A   Clear
3:32 AM 40.1 °F - 33.4 °F 77% 29.89 in 10.0 mi Calm Calm - N/A   Clear
3:52 AM 39.4 °F 37.2 °F 33.1 °F 78% 29.89 in 10.0 mi SW 3.5 mph - N/A   Clear
4:12 AM 37.4 °F 34.9 °F 32.2 °F 81% 29.89 in 10.0 mi SSW 3.5 mph - N/A   Clear
4:32 AM 36.1 °F 32.3 °F 32.0 °F 85% 29.90 in 10.0 mi SSW 4.6 mph - N/A   Clear
4:52 AM 33.4 °F 30.4 °F 29.7 °F 86% 29.90 in 10.0 mi SW 3.5 mph - N/A   Clear
5:12 AM 36.9 °F 34.3 °F 32.0 °F 83% 29.91 in 10.0 mi SW 3.5 mph - N/A   Clear
5:32 AM 37.4 °F 34.9 °F 32.0 °F 81% 29.91 in 10.0 mi SW 3.5 mph - N/A   Clear
5:52 AM 36.3 °F 33.7 °F 31.5 °F 83% 29.91 in 10.0 mi SW 3.5 mph - N/A   Clear
6:12 AM 35.6 °F - 31.8 °F 86% 29.91 in 10.0 mi Calm Calm - N/A   Clear
6:32 AM 32.5 °F 29.3 °F 29.1 °F 87% 29.91 in 10.0 mi South 3.5 mph - N/A   Clear
7:12 AM 31.1 °F 26.4 °F 28.2 °F 89% 29.92 in 10.0 mi South 4.6 mph - N/A   Clear
7:32 AM 31.1 °F 26.4 °F 28.6 °F 90% 29.93 in 10.0 mi SSW 4.6 mph - N/A   Clear
7:52 AM 32.0 °F 27.5 °F 29.5 °F 90% 29.93 in 10.0 mi SSW 4.6 mph - N/A   Clear
8:12 AM 32.2 °F 26.7 °F 29.8 °F 91% 29.93 in 10.0 mi South 5.8 mph - N/A   Clear
8:32 AM 35.8 °F - 32.0 °F 86% 29.94 in 10.0 mi Calm Calm - N/A   Clear
8:52 AM 38.5 °F 35.0 °F 33.8 °F 83% 29.95 in 10.0 mi SSW 4.6 mph - N/A   Clear
9:12 AM 42.1 °F 39.2 °F 35.6 °F 78% 29.95 in 10.0 mi SW 4.6 mph - N/A   Clear
9:32 AM 43.9 °F - 36.0 °F 74% 29.95 in 10.0 mi Calm Calm - N/A   Clear
9:52 AM 45.7 °F - 36.3 °F 70% 29.95 in 10.0 mi Calm Calm - N/A   Clear
10:12 AM 46.9 °F - 36.0 °F 66% 29.95 in 10.0 mi Calm Calm - N/A   Clear
10:32 AM 49.1 °F - 36.5 °F 62% 29.95 in 10.0 mi SSW 3.5 mph - N/A   Clear
10:52 AM 50.5 °F - 36.1 °F 58% 29.95 in 10.0 mi SW 3.5 mph - N/A   Clear
11:12 AM 52.2 °F - 36.3 °F 55% 29.95 in 10.0 mi West 4.6 mph - N/A   Clear
11:32 AM 54.5 °F - 36.0 °F 50% 29.95 in 10.0 mi WSW 3.5 mph - N/A   Clear
11:52 AM 55.9 °F - 34.9 °F 45% 29.95 in 10.0 mi West 8.1 mph - N/A   Clear
12:13 PM 56.7 °F - 33.6 °F 42% 29.95 in 10.0 mi WSW 8.1 mph - N/A   Clear
12:32 PM 57.4 °F - 34.7 °F 43% 29.95 in 10.0 mi West 6.9 mph - N/A   Clear
12:52 PM 58.1 °F - 34.9 °F 42% 29.94 in 10.0 mi West 6.9 mph - N/A   Clear
1:13 PM 58.3 °F - 34.7 °F 41% 29.92 in 10.0 mi SSW 4.6 mph - N/A   Clear
1:32 PM 59.9 °F - 34.3 °F 38% 29.91 in 10.0 mi Calm Calm - N/A   Clear
1:52 PM 60.4 °F - 33.4 °F 36% 29.90 in 10.0 mi Calm Calm - N/A   Clear
2:12 PM 60.3 °F - 33.6 °F 37% 29.89 in 10.0 mi Calm Calm - N/A   Clear
2:32 PM 60.4 °F - 33.6 °F 37% 29.88 in 10.0 mi SW 5.8 mph - N/A   Clear
2:52 PM 61.2 °F - 33.1 °F 35% 29.88 in 10.0 mi WSW 3.5 mph - N/A   Clear
3:12 PM 61.3 °F - 32.9 °F 34% 29.87 in 10.0 mi Calm Calm - N/A   Clear
3:32 PM 61.9 °F - 33.1 °F 34% 29.86 in 10.0 mi South 4.6 mph - N/A   Clear
3:52 PM 62.8 °F - 32.5 °F 32% 29.86 in 10.0 mi SSW 3.5 mph - N/A   Clear
4:12 PM 62.8 °F - 32.5 °F 32% 29.85 in 10.0 mi South 3.5 mph - N/A   Clear
4:32 PM 63.0 °F - 32.2 °F 32% 29.85 in 10.0 mi South 3.5 mph - N/A   Clear
4:52 PM 63.0 °F - 32.5 °F 32% 29.85 in 10.0 mi South 5.8 mph - N/A   Scattered Clouds
5:12 PM 62.1 °F - 32.2 °F 33% 29.85 in 10.0 mi SSW 4.6 mph - N/A   Scattered Clouds
5:32 PM 61.0 °F - 33.8 °F 36% 29.84 in 10.0 mi South 3.5 mph - N/A   Mostly Cloudy
5:52 PM 60.1 °F - 33.8 °F 37% 29.84 in 10.0 mi South 4.6 mph - N/A   Scattered Clouds
6:12 PM 60.8 °F - 33.3 °F 36% 29.83 in 10.0 mi SE 4.6 mph - N/A   Mostly Cloudy
6:32 PM 59.9 °F - 34.0 °F 38% 29.83 in 10.0 mi SE 3.5 mph - N/A   Overcast
6:52 PM 59.4 °F - 34.7 °F 40% 29.82 in 10.0 mi SE 5.8 mph - N/A   Mostly Cloudy
7:12 PM 59.9 °F - 34.7 °F 39% 29.82 in 10.0 mi SSE 6.9 mph - N/A   Mostly Cloudy
7:32 PM 59.7 °F - 34.7 °F 39% 29.82 in 10.0 mi SSE 8.1 mph - N/A   Overcast
7:52 PM 59.4 °F - 36.0 °F 42% 29.81 in 10.0 mi SSE 6.9 mph - N/A   Mostly Cloudy
8:12 PM 59.0 °F - 36.5 °F 43% 29.81 in 10.0 mi SSE 9.2 mph - N/A   Mostly Cloudy
8:32 PM 58.6 °F - 36.9 °F 44% 29.81 in 10.0 mi SSE 10.4 mph - N/A   Scattered Clouds
8:52 PM 58.8 °F - 37.4 °F 45% 29.81 in 10.0 mi South 9.2 mph - N/A   Scattered Clouds
9:12 PM 57.9 °F - 38.3 °F 48% 29.81 in 10.0 mi South 11.5 mph - N/A   Scattered Clouds
9:32 PM 57.4 °F - 38.7 °F 50% 29.81 in 10.0 mi South 10.4 mph - N/A   Clear
9:52 PM 57.4 °F - 39.0 °F 50% 29.81 in 10.0 mi South 9.2 mph 16.1 mph N/A   Clear
10:12 PM 57.4 °F - 39.2 °F 51% 29.79 in 10.0 mi South 15.0 mph - N/A   Clear
10:32 PM 57.2 °F - 39.2 °F 51% 29.78 in 10.0 mi South 11.5 mph 19.6 mph N/A   Clear
10:52 PM 57.2 °F - 39.2 °F 51% 29.77 in 10.0 mi South 15.0 mph 21.9 mph N/A   Clear
11:12 PM 57.2 °F - 39.4 °F 51% 29.77 in 10.0 mi South 12.7 mph - N/A   Clear
11:32 PM 57.2 °F - 39.7 °F 52% 29.76 in 10.0 mi South 13.8 mph - N/A   Clear
11:52 PM 56.7 °F - 39.7 °F 53% 29.75 in 10.0 mi South 13.8 mph 19.6 mph N/A   Clear